Regional Weather Roundup
Issued by NWS Wakefield, VA

Home | Current Version | Previous Version | Text Only | Print | Product List | Glossary On
Versions: 1 2 3 4 5 6 7 8 9 10 11 12 13 14 15 16 17 18 19 20 21 22 23 24 25 26 27 28 29 30 31 32 33 34 35 36 37 38 39 40 41 42 43 44 45 46 47 48 49 50
254
ASUS41 KAKQ 240115
RWRAKQ

REGIONAL WEATHER ROUNDUP
NATIONAL WEATHER SERVICE WAKEFIELD VA
900 PM EDT TUE AUG 23 2016

Note: "fair" indicates few or no clouds below 12,000 feet with no
significant weather and/or obstructions to visibility. * = Denotes
station may not report precipitation (e.g., rain,snow,etc.),
thunder or fog.

VAZ042-051-052>054-056-240200-
NORTHERN VIRGINIA

CITY           SKY/WX    TMP DP  RH WIND       PRES   REMARKS
WASH NATIONAL  PTCLDY    76  58  53 SE10      30.28R
DULLES         PTCLDY    75  60  59 S5        30.27R
FORT BELVOIR   CLEAR     69  64  86 CALM      30.27R
QUANTICO       PTCLDY    78  62  57 S12       30.28R
FREDERICKSBRG* CLEAR     71  64  80 SE5       30.27R
STAFFORD*      CLEAR     66  64  91 CALM      30.32R
WARRENTON      CLEAR     71  61  70 SE3       30.28R
CULPEPER*      CLEAR     68  66  92 CALM      30.28R
MANASSAS*      CLEAR     72  64  78 CALM      30.28R
LEESBURG*      CLEAR     73  68  83 SW5       30.28R
WINCHESTER     CLEAR     70  63  78 SE3       30.28R
FRONT ROYAL*   FAIR      70  64  83 CALM      30.27R
LURAY*         FAIR      70  66  88 CALM      30.28R
$$

VAZ048-049-060>072-079>083-240200-
CENTRAL AND SOUTH CENTRAL VIRGINIA

CITY           SKY/WX    TMP DP  RH WIND       PRES   REMARKS
RICHMOND       PTCLDY    71  61  70 SE7       30.29R
CHESTERFIELD*  FAIR      72  52  49 CALM      30.30R
PETERSBURG*    CLEAR     67  66  97 CALM      30.29R
HANOVER        CLEAR     69  64  84 CALM      30.30R
TAPPAHANNOCK*  CLEAR     67  62  84 CALM      30.29R
QUINTON*       FAIR      70  64  80 E3        30.28R
CHARLOTTSVILLE CLEAR     75  65  70 S3        30.28R
GORDONSVILLE*  FAIR      70  66  88 CALM      30.28R
ORANGE*          N/A     68  68 100 CALM      30.30R
LOUISA*        CLEAR     70  68  94 CALM      30.27S
BUMPASS*       FAIR      69  66  90 CALM      30.28R
FARMVILLE*     CLEAR     73  65  74 CALM      30.27R
CREWE*         FAIR      68  68 100 CALM      30.28S
FORT PICKETT*  NOT AVBL
CHASE CITY*    FAIR      71  65  82 CALM      30.29R
CLARKSVILLE*   FAIR      73  63  68 E6        30.27R
SOUTH HILL*    CLEAR     68  65  90 CALM      30.34R
LAWRENCEVILLE* FAIR      69  64  85 CALM      30.28R
EMPORIA*       CLEAR     72  61  68 NE3       30.30R
$$

VAZ088>098-240200-
SOUTHEAST VIRGINIA

CITY           SKY/WX    TMP DP  RH WIND       PRES   REMARKS
NORFOLK        NOT AVBL
VIRGINIA BEACH PTCLDY    77  57  50 E3        30.29R
NORFOLK NAVAL  CLEAR     72  58  61 SE3       30.31R
WEST POINT*    CLEAR     69  59  71 CALM      30.31R
SALUDA*        FAIR      69  62  78 CALM      30.29R
NEWPORT NEWS   CLEAR     73  61  65 SE5       30.29R
LANGLEY AFB    CLEAR     74  60  63 E6        30.29R
FORT EUSTIS    CLEAR     72  60  66 SE3       30.27R
WILLIAMSBURG*  CLEAR     72  63  73 CALM      30.30R
HR EXEC AP*    FAIR      63  57  82 CALM      30.32R
FRANKLIN*      CLEAR     68  60  76 CALM      30.30R
US460-WAKEFLD  CLEAR     69  61  75 CALM      30.29R
$$

VAZ020-022-025-037-045-240200-
WEST CENTRAL AND SOUTHWEST VIRGINIA

CITY           SKY/WX    TMP DP  RH WIND       PRES   REMARKS
STAUNTON*      CLEAR     69  63  79 CALM      30.32R
WAYNESBORO*    FAIR      69  63  81 CALM      30.31R
HOT SPRINGS VA CLEAR     65  58  80 S8        30.40R
LYNCHBURG      CLEAR     69  65  86 CALM      30.30R
DANVILLE       CLEAR     70  66  87 CALM      30.28R
SOUTH BOSTON*  MOCLDY    73  66  79 CALM      30.27R
MARTINSVILLE   CLEAR     67  65  93 CALM      30.32R
ROANOKE        CLEAR     75  64  68 SE5       30.31R
BLACKSBURG     CLEAR     69  63  82 E5        30.37R
DUBLIN*        CLEAR     71  63  78 CALM      30.35R
MARION*        PTCLDY    70  62  77 CALM      30.37S
HILLSVILLE*    CLEAR     68  61  79 SE3       30.36R
RICHLANDS*     FAIR      72  64  75 S3        30.34S
WISE*          PTCLDY    70  52  52 CALM      30.35S
ABINGDON*      PTCLDY    73  65  76 CALM      30.31R
$$

MDZ021>025-VAZ099-100-240200-
SOUTHERN MARYLAND AND THE DELMARVA PENINSULA

CITY           SKY/WX    TMP DP  RH WIND       PRES   REMARKS
PATUXENT RIVER PTCLDY    68  60  75 S5        30.28R
BAY BRIDGE APT CLEAR     72  63  73 CALM      30.27R
LEONARDTOWN    CLEAR     68  57  68 CALM      30.30R
DOVER          PTCLDY    69  63  81 S6        30.27R
GEORGETOWN     CLEAR     67  59  75 CALM      30.30R
EASTON         NOT AVBL
CAMBRIDGE      CLEAR     66  61  82 CALM      30.28R
SALISBURY      CLEAR     66  60  81 CALM      30.29R
OCEAN CITY     CLEAR     71  59  65 SE5       30.29R
WALLOPS ISLAND CLEAR     70  59  68 SE3       30.30R
ACCOMACK*      CLEAR     66  57  72 CALM      30.30R
$$

NCZ012>017-030>032-240200-
NORTH CENTRAL AND EASTERN NORTH CAROLINA

CITY           SKY/WX    TMP DP  RH WIND       PRES   REMARKS
ROANOKE RAPIDS FAIR      70  64  83 E3        30.28R
RALEIGH        PTCLDY    76  63  64 E3        30.27R
ELIZABETH CITY CLEAR     74  59  59 NE8       30.29R
AHOSKIE*       CLEAR     70  64  80 CALM      30.29R
EDENTON*       CLEAR     71  60  68 NE3       30.30R
CURRITUCK*       N/A     75  58  54 NE6       30.30R
KILL DEVIL HLS CLEAR     74  63  68 NE5       30.27R
MANTEO         CLEAR     74  59  58 NE10      30.29R
CAPE HATTERAS  NOT AVBL
TARBORO*       FAIR      71  69  95 CALM      30.28R
GOLDSBORO      CLEAR     76  69  79 E8        30.25R
WASHINGTON     PTCLDY    73  64  73 E5        30.28R
GREENVILLE     PTCLDY    77  64  65 E7        30.29R
NEW BERN       CLOUDY    78  63  59 E6        30.28R
WILMINGTON     CLEAR     77  65  66 E7        30.24R
$$

VAZ048-240200-
ELSEWHERE

CITY           SKY/WX    TMP DP  RH WIND       PRES   REMARKS
HARRISBURG PA  PTCLDY    72  65  78 E7        30.25R
BALTIMORE      PTCLDY    68  61  78 CALM      30.27R
ANNAPOLIS      CLEAR     75  58  55 S5        30.27R
ANDREWS AFB    CLEAR     69  59  71 SE7       30.27R
PHILADELPHIA   PTCLDY    76  58  53 S8        30.27R
HENDERSON NC   PTCLDY    69  62  78 CALM      30.29R
GREENSBORO     PTCLDY    78  62  57 CALM      30.28R
ROCKY MOUNT    CLEAR     75  66  73 CALM      30.27R
$$

VAZ100-240200-
MARINE

STATION/POSITION TIME  TEMP    WIND        PRES    WAVE   SWELL
                       AIR SEA DIR/SP/G            HT/PER HT/PER
                 (UTC) (F)     (DEG/KT/KT) (MB)    (FT/S) (FT/S)
BRANDYWINE LGT   0000   73     190/  9/ 10   N/A
CAPE MAY NJ      0000   70 76  150/  4/  5 1024.4F
LEWES DE         0000   71 76  160/  5/  6 1024.9S
OCEAN-CITY-INLET 0000   73 76  110/  3/  4 1025.7R
WACHAPREAGUE VA  0000   73 82   80/  4/  6 1025.5R
THOMAS POINT MD  0100   78 82  150/  8/  9 1026.5R
GOOSES REEF MD   0000   79 83  110/  4/  6 1025.2S   0
COVE POINT MD    0000   78     140/  5/  6 1025.3S
SOLOMONS ISLAND  0000   78 85   40/  2/  3   N/A
BISHOPS HEAD MD  0000   78 82   CALM  /  1 1025.3R
PINEY POINT MD   0000          130/  6/  8   N/A
POTOMAC MD       0000   79 84  110/  4/  6 1024.0R   0
CAMBRIDGE MD     0000   78 84   50/  2/  3 1024.0F
LEWISETTA VA     0000   77 82  180/  4/  5 1024.7R
RAPPAHANNOCK LGT 0000           90/ 11/ 12 1025.7R
STINGRAY PT      0000   79 84   20/  6/  8 1025.5R   0
YORKTOWN VA      0000   79 83   80/  7/  9 1024.8R
JAMESTOWN VA     0000   78 86  100/  8/ 10   N/A     0
DOMINION TERM VA 0000   77     110/  5/ 11 1025.3R
KIPTOPEKE VA     0000      78  100/  4/  6   N/A
CHES BAY BRIDGE  0000   76 79   60/ 11/ 12 1025.1R
CAPE HENRY VA    0000   75      70/ 11/ 12   N/A
WILLOUBY STN VA  0000   76      70/  9/ 10   N/A
CAPE HENRY BUOY  0012      80                N/A     3/ 6
1ST LANDING BUOY 0000   76 77   80/ 12/ 14 1025.0R   2/ 3
CAPE CHARLES BUO 0026      78                N/A     2/ 4
OFFSHORE WE BUOY 0021      80                N/A     3/ 5
64NM E OF VA BCH 0050   76 82   40/ 12/ 14 1025.1R   3/ 7   2/ 7
DUCK PIER NC     0000   77 78   50/ 15/ 19 1024.5R
44100 DUCK FRF   0005      80                N/A     4/ 5
44056 DUCK FRF   0011      78                N/A     3/ 4
OREGON INLET NC  0000   76 79   30/ 11/ 14 1024.6R
HATTERAS NC      0000   77 80   40/ 10/ 16 1024.1R
DIAMOND SHLS NC  0050   79 85   40/ 14/ 17 1024.4R   4/ 7   2/ 7
CAPE LOOKOUT NC  0100   79      50/ 18/ 20 1024.5R
$$




USA.gov is the U.S. government's official web portal to all federal, state and local government web resources and services.